CZ-6A DEB, 54540

Orbit data source: Space-Track

CZ-6A DEB, 54540 is space debris in SSO originally from a launch on Fri, 11 Nov 2022 UTC launched from the Taiyaun Space Center, China (TSC). Debris objects in space refer to the collection of defunct objects orbiting the Earth. Examples of debris include non-operational satellites, rocket bodies, and fragments generated from explosions, collisions, or faulty payload assembly.

Loading next visibility...
Identifier
54540, 2022-151KQ
Orbit
SSO
Country
Flag of CNCN / PRC
Related business
Manufacturer
SAST
Mission
Spacecraft
Bus & Motor
Unknown
Mass
Unknown
Launch date (UTC)
2022-11-11 (4 years ago)
Launch vehicle
Unknown
Launch site
Taiyaun Space Center, China (TSC)
Object type
Payload
Rocket body
Debris
Shape & HBR
Unknown shape, 0.3 m
Radar Cross Section
Medium (>0.1 m² and <1 m²)

Expand to show TLE details & history
Last TLE update: 7 hours ago

TLE from 7 hours ago
0 CZ-6A DEB
1 54540U 22151KQ  26237.28251846  .00000553  00000-0  28578-3 0  9991
2 54540  98.7819 244.4993 0051937 152.3045 208.0914 14.18361269195428
Epoch: 2026-08-25T06:46Z
TLE epoch observation values (Epoch: 2026-08-25T06:46:49.594Z)
Latitude
-0.00002°
Longitude
169.24056°
Altitude
866.891 km
Speed
7.402 km/s
True Right ascension
16h 17m 59s
True Declination
0° 00' 00"
Sunlit
Object was in daylight at epoch
Visualization orbit readout
Latitude
Unknown
Longitude
Unknown
Altitude
Unknown
Speed
Unknown
Apparent Right ascension
Unknown
Apparent Declination
Unknown
Sunlit
N/A
Visualization observer readout
Local Sidereal Time
05:10:25
Azimuth
Unknown
Elevation
Unknown
Doppler factor
Unknown
Orbital elements
Apogee altitude
865.491 km
Perigee altitude
790.637 km
Semi-major axis
7,206.201 km
Eccentricity
0.00519
Inclination
98.7819°
RAAN
244.4993°
Arg. of periapsis
152.3045°
True anomaly
207.81275°
Mean anomaly
208.0914°
Eccentric anomaly
207.95192°
Mean motion
3.548 °/min
Orbital period
101.47 mins
BSTAR
0.00028578
Loading maneuver chart data...
Computing Atmospheric mass density...
Loading historical data...
Loading historical data...
Loading historical data...
Loading historical data...
Loading historical data...
Loading historical data...
Loading historical data...

Documentation

Showing up to 5 results
|